Highgate, VT

3:51 AM EST on December 17, 2017 (GMT -0500)
Franklin County State

Weather History for KFSO - March, 2013

Change the Weather History Date:

Tuesday, March 26, 2013

  Actual Average (KPBG) Record (KPBG)
Temperature  
Mean Temperature 38 °F -  
Max Temperature 46 °F 44 °F 65 °F (1949)
Min Temperature 30 °F 25 °F 1 °F (1960)
Degree Days  
Heating Degree Days 27    
Moisture  
Dew Point 24 °F    
Average Humidity 60    
Maximum Humidity 76    
Minimum Humidity 42    
Precipitation  
Precipitation 0.00 in - - ()
Sea Level Pressure  
Sea Level Pressure 29.74 in    
Wind  
Wind Speed 7 mph (North)    
Max Wind Speed 10 mph    
Max Gust Speed -    
Visibility 10 miles    
Events      
Averages and records for this station are not official NWS values.
T = Trace of Precipitation, MM = Missing Value Source: NWS Daily Summary

Daily Weather History Graph

Daily Weather History Graph

Search for Another Location

Airport or City:

Trip Planner

Search our weather history database for the weather conditions in past years. The results will help you decide how hot, cold, wet, or windy it might be!

Date:

Astronomy

Mar. 26, 2013 Rise Set
Actual Time 6:43 AM EDT 7:12 PM EDT
Civil Twilight 6:14 AM EDT 7:42 PM EDT
Nautical Twilight 5:39 AM EDT 8:17 PM EDT
Astronomical Twilight 5:03 AM EDT 8:53 PM EDT
Moon 6:47 PM EDT (3/26) 5:59 AM EDT (3/26)
Length of Visible Light 13h 27m
Length of Day
12h 28m
Waxing Gibbous, 99% of the Moon is Illuminated
Mar 26
Waxing Gibbous
Mar 27
Full
Apr 3
Last Quarter
Apr 10
New
Apr 18
First Quarter

Hourly Weather History & Observations

Time (EDT) Temp. Windchill Dew Point Humidity Pressure Visibility Wind Dir Wind Speed Gust Speed Precip Events Conditions
12:15 AM 34.2 °F 26.8 °F 24.8 °F 69% 29.66 in 10.0 mi North 9.2 mph - N/A   Overcast
12:35 AM 34.2 °F 26.2 °F 25.3 °F 70% 29.66 in 10.0 mi North 10.4 mph - N/A   Overcast
12:55 AM 34.2 °F 27.5 °F 25.2 °F 70% 29.66 in 10.0 mi North 8.1 mph - N/A   Scattered Clouds
1:15 AM 33.1 °F 26.1 °F 25.0 °F 72% 29.66 in 10.0 mi North 8.1 mph - N/A   Clear
1:35 AM 34.2 °F 27.5 °F 25.7 °F 71% 29.67 in 10.0 mi North 8.1 mph - N/A   Mostly Cloudy
1:55 AM 34.2 °F 27.5 °F 25.7 °F 71% 29.67 in 10.0 mi North 8.1 mph - N/A   Overcast
2:15 AM 34.2 °F 27.5 °F 25.7 °F 71% 29.67 in 10.0 mi North 8.1 mph - N/A   Overcast
2:35 AM 34.2 °F 27.5 °F 25.7 °F 71% 29.67 in 10.0 mi North 8.1 mph - N/A   Overcast
2:55 AM 34.2 °F 27.5 °F 25.7 °F 71% 29.67 in 10.0 mi North 8.1 mph - N/A   Overcast
3:15 AM 34.2 °F 26.8 °F 25.3 °F 70% 29.67 in 10.0 mi North 9.2 mph - N/A   Overcast
3:35 AM 34.2 °F 26.8 °F 25.3 °F 70% 29.67 in 10.0 mi North 9.2 mph - N/A   Overcast
3:55 AM 34.2 °F 26.8 °F 25.3 °F 70% 29.68 in 10.0 mi North 9.2 mph - N/A   Overcast
4:15 AM 34.2 °F 28.2 °F 25.3 °F 70% 29.68 in 10.0 mi North 6.9 mph - N/A   Overcast
4:35 AM 34.2 °F 29.0 °F 25.7 °F 71% 29.68 in 10.0 mi North 5.8 mph - N/A   Overcast
4:55 AM 34.2 °F 28.2 °F 25.9 °F 72% 29.69 in 10.0 mi North 6.9 mph - N/A   Overcast
5:15 AM 34.2 °F 29.0 °F 25.9 °F 72% 29.69 in 10.0 mi North 5.8 mph - N/A   Overcast
5:35 AM 34.2 °F 27.5 °F 25.7 °F 71% 29.70 in 10.0 mi North 8.1 mph - N/A   Overcast
5:55 AM 33.3 °F 27.9 °F 24.4 °F 70% 29.71 in 10.0 mi NNE 5.8 mph - N/A   Overcast
6:15 AM 31.8 °F 25.4 °F 23.0 °F 70% 29.71 in 10.0 mi North 6.9 mph - N/A   Overcast
6:35 AM 30.7 °F 26.0 °F 22.1 °F 70% 29.71 in 10.0 mi NNW 4.6 mph - N/A   Overcast
6:55 AM 30.0 °F 22.4 °F 23.0 °F 75% 29.72 in 10.0 mi North 8.1 mph - N/A   Overcast
7:15 AM 30.7 °F 24.1 °F 23.9 °F 76% 29.72 in 10.0 mi North 6.9 mph - N/A   Overcast
7:35 AM 31.6 °F 23.7 °F 24.6 °F 75% 29.73 in 10.0 mi North 9.2 mph - N/A   Overcast
7:55 AM 32.0 °F 25.6 °F 24.4 °F 74% 29.74 in 10.0 mi North 6.9 mph - N/A   Overcast
8:15 AM 34.2 °F 30.0 °F 26.1 °F 72% 29.74 in 10.0 mi North 4.6 mph - N/A   Overcast
8:35 AM 34.2 °F 30.0 °F 25.5 °F 71% 29.75 in 10.0 mi North 4.6 mph - N/A   Scattered Clouds
8:55 AM 34.2 °F 28.2 °F 24.6 °F 68% 29.75 in 10.0 mi North 6.9 mph - N/A   Clear
9:15 AM 35.6 °F 30.7 °F 25.3 °F 66% 29.75 in 10.0 mi North 5.8 mph - N/A   Clear
9:35 AM 36.7 °F 31.2 °F 25.5 °F 64% 29.75 in 10.0 mi North 6.9 mph - N/A   Clear
9:55 AM 36.7 °F 31.2 °F 24.8 °F 62% 29.76 in 10.0 mi North 6.9 mph - N/A   Clear
10:15 AM 37.2 °F 32.6 °F 24.6 °F 60% 29.76 in 10.0 mi NNW 5.8 mph - N/A   Clear
10:35 AM 39.2 °F 35.0 °F 25.5 °F 58% 29.76 in 10.0 mi NNW 5.8 mph - N/A   Clear
10:55 AM 39.2 °F 33.0 °F 25.3 °F 58% 29.77 in 10.0 mi North 9.2 mph - N/A   Clear
11:15 AM 39.2 °F 33.0 °F 25.0 °F 57% 29.77 in 10.0 mi NW 9.2 mph - N/A   Clear
11:35 AM 39.2 °F 33.6 °F 25.0 °F 57% 29.77 in 10.0 mi NNW 8.1 mph - N/A   Clear
12:15 PM 40.5 °F 35.1 °F 24.8 °F 54% 29.77 in 10.0 mi NW 8.1 mph - N/A   Clear
12:35 PM 40.5 °F 35.1 °F 24.6 °F 53% 29.77 in 10.0 mi NW 8.1 mph - N/A   Clear
12:55 PM 41.9 °F 36.3 °F 25.2 °F 52% 29.77 in 10.0 mi NNW 9.2 mph - N/A   Clear
1:15 PM 42.1 °F 39.2 °F 25.3 °F 52% 29.77 in 10.0 mi North 4.6 mph - N/A   Clear
1:35 PM 42.4 °F 38.1 °F 24.6 °F 49% 29.77 in 10.0 mi NNW 6.9 mph - N/A   Clear
1:55 PM 42.6 °F 38.4 °F 25.2 °F 50% 29.77 in 10.0 mi North 6.9 mph - N/A   Clear
2:15 PM 43.0 °F 39.5 °F 24.4 °F 48% 29.77 in 10.0 mi NW 5.8 mph - N/A   Clear
2:35 PM 43.0 °F 38.8 °F 24.1 °F 47% 29.77 in 10.0 mi North 6.9 mph - N/A   Clear
2:55 PM 43.9 °F 39.9 °F 24.3 °F 46% 29.77 in 10.0 mi NNW 6.9 mph - N/A   Clear
3:15 PM 43.3 °F 39.2 °F 23.5 °F 46% 29.77 in 10.0 mi NW 6.9 mph - N/A   Clear
3:35 PM 44.2 °F 42.7 °F 23.2 °F 43% 29.77 in 10.0 mi WNW 3.5 mph - N/A   Clear
3:55 PM 44.1 °F 40.8 °F 23.4 °F 44% 29.77 in 10.0 mi North 5.8 mph - N/A   Clear
4:15 PM 44.8 °F 41.0 °F 23.7 °F 44% 29.77 in 10.0 mi North 6.9 mph - N/A   Clear
4:35 PM 44.8 °F 42.4 °F 23.5 °F 43% 29.77 in 10.0 mi North 4.6 mph - N/A   Clear
4:55 PM 45.1 °F - 23.5 °F 43% 29.77 in 10.0 mi Calm Calm - N/A   Clear
5:15 PM 46.6 °F - 24.6 °F 42% 29.77 in 10.0 mi North 5.8 mph - N/A   Clear
5:35 PM 45.1 °F 43.7 °F 23.2 °F 42% 29.77 in 10.0 mi North 3.5 mph - N/A   Clear
5:55 PM 44.2 °F 42.7 °F 22.6 °F 42% 29.77 in 10.0 mi North 3.5 mph - N/A   Clear
6:15 PM 43.7 °F 42.1 °F 22.3 °F 43% 29.77 in 10.0 mi NNW 3.5 mph - N/A   Clear
6:35 PM 42.8 °F 41.1 °F 22.3 °F 44% 29.77 in 10.0 mi North 3.5 mph - N/A   Clear
6:55 PM 41.7 °F - 22.6 °F 47% 29.78 in 10.0 mi Calm Calm - N/A   Clear
7:15 PM 40.5 °F - 22.1 °F 48% 29.77 in 10.0 mi Calm Calm - N/A   Clear
7:35 PM 39.2 °F - 23.0 °F 52% 29.78 in 10.0 mi Calm Calm - N/A   Clear
7:55 PM 36.5 °F - 24.1 °F 61% 29.78 in 10.0 mi Calm Calm - N/A   Clear
8:15 PM 36.7 °F - 23.2 °F 58% 29.78 in 10.0 mi Calm Calm - N/A   Mostly Cloudy
8:35 PM 34.2 °F - 24.3 °F 67% 29.79 in 10.0 mi Calm Calm - N/A   Overcast
8:55 PM 34.3 °F - 24.8 °F 68% 29.79 in 10.0 mi Calm Calm - N/A   Overcast
9:15 PM 34.3 °F - 24.8 °F 68% 29.79 in 10.0 mi Calm Calm - N/A   Overcast
9:35 PM 35.6 °F - 25.7 °F 67% 29.79 in 10.0 mi Calm Calm - N/A   Overcast
9:55 PM 36.3 °F - 25.7 °F 65% 29.79 in 10.0 mi Calm Calm - N/A   Overcast
10:15 PM 36.7 °F - 22.6 °F 57% 29.79 in 10.0 mi Calm Calm - N/A   Overcast
10:35 PM 37.0 °F - 22.1 °F 55% 29.79 in 10.0 mi Calm Calm - N/A   Overcast
10:55 PM 37.0 °F - 22.1 °F 55% 29.79 in 10.0 mi Calm Calm - N/A   Overcast
11:15 PM 37.0 °F - 22.1 °F 55% 29.78 in 10.0 mi Calm Calm - N/A   Overcast
11:35 PM 36.7 °F - 22.1 °F 56% 29.78 in 10.0 mi Calm Calm - N/A   Overcast
11:55 PM 36.7 °F - 22.3 °F 56% 29.78 in 10.0 mi Calm Calm - N/A   Overcast